N0HBJ Weather Reports


time (UTC)temp
C
wind
direction
speed
KPH
gust
KPH
rain 1hr
cm
rain 24hr
cm
rain mn
cm
humidity
%
barometer
mb
20260906225448 24 180 11.3 22.5 0.00 0.00 0.00 29 1025.7
20260906224945 25 212 14.5 25.7 0.00 0.00 0.00 27 1025.7
20260906224719 25 194 17.7 30.6 0.00 0.00 0.00 26 1025.7
20260906223946 25 259 16.1 30.6 0.00 0.00 0.00 27 1025.7
20260906223444 25 205 12.9 20.9 0.00 0.00 0.00 26 1025.8
20260906222945 25 194 12.9 25.7 0.00 0.00 0.00 27 1025.8
20260906222448 25 207 12.9 25.7 0.00 0.00 0.00 29 1025.7
20260906221942 25 163 14.5 25.7 0.00 0.00 0.00 28 1025.8
20260906221442 25 200 14.5 24.1 0.00 0.00 0.00 28 1025.8
20260906220939 24 213 14.5 24.1 0.00 0.00 0.00 28 1025.8
20260906220439 25 209 14.5 27.4 0.00 0.00 0.00 28 1025.9
20260906215938 25 212 14.5 27.4 0.00 0.00 0.00 28 1025.9
20260906215440 24 194 14.5 25.7 0.00 0.00 0.00 28 1025.9
20260906214937 25 175 16.1 29.0 0.00 0.00 0.00 28 1025.9
20260906214437 25 212 14.5 29.0 0.00 0.00 0.00 29 1026.1
20260906214208 25 182 14.5 30.6 0.00 0.00 0.00 28 1026.1
20260906213435 25 219 14.5 30.6 0.00 0.00 0.00 28 1026.1
20260906212935 25 200 16.1 30.6 0.00 0.00 0.00 27 1026.1
20260906212433 25 188 14.5 30.6 0.00 0.00 0.00 27 1026.2
20260906212205 25 178 12.9 29.0 0.00 0.00 0.00 28 1026.2
20260906211433 25 217 14.5 29.0 0.00 0.00 0.00 28 1026.3
20260906210934 25 215 14.5 27.4 0.00 0.00 0.00 29 1026.3
20260906210432 25 221 14.5 29.0 0.00 0.00 0.00 29 1026.5
20260906210205 24 207 16.1 29.0 0.00 0.00 0.00 28 1026.6
20260906205706 25 212 14.5 29.0 0.00 0.00 0.00 28 1026.6
20260906204932 25 205 12.9 25.7 0.00 0.00 0.00 29 1026.6
20260906204430 25 190 14.5 25.7 0.00 0.00 0.00 28 1026.7
20260906203930 25 190 16.1 24.1 0.00 0.00 0.00 28 1026.7
20260906203432 25 196 14.5 25.7 0.00 0.00 0.00 28 1026.6
20260906202930 25 196 14.5 25.7 0.00 0.00 0.00 29 1026.6
20260906202432 24 200 14.5 29.0 0.00 0.00 0.00 29 1026.7
20260906202200 25 204 16.1 29.0 0.00 0.00 0.00 27 1026.7
20260906201428 25 227 17.7 27.4 0.00 0.00 0.00 27 1026.7
20260906200927 25 205 16.1 30.6 0.00 0.00 0.00 27 1026.9
20260906200427 25 194 11.3 30.6 0.00 0.00 0.00 27 1026.7
20260906195926 25 137 6.4 16.1 0.00 0.00 0.00 27 1026.9
20260906195428 25 94 6.4 19.3 0.00 0.00 0.00 26 1026.7
20260906194922 25 187 9.7 19.3 0.00 0.00 0.00 27 1026.9
20260906194424 25 216 9.7 17.7 0.00 0.00 0.00 26 1026.9
20260906194153 25 209 8.0 16.1 0.00 0.00 0.00 26 1026.7
20260906193422 25 147 6.4 14.5 0.00 0.00 0.00 26 1026.9
20260906192924 25 121 4.8 11.3 0.00 0.00 0.00 26 1027.0
20260906192424 25 206 6.4 17.7 0.00 0.00 0.00 26 1027.0
20260906191919 25 65 8.0 17.7 0.00 0.00 0.00 26 1027.2
20260906191420 24 234 6.4 16.1 0.00 0.00 0.00 27 1027.4
20260906190918 24 93 6.4 17.7 0.00 0.00 0.00 27 1027.4
20260906190649 24 208 6.4 17.7 0.00 0.00 0.00 26 1027.5
20260906185919 24 250 8.0 19.3 0.00 0.00 0.00 27 1027.6
20260906185419 24 96 6.4 19.3 0.00 0.00 0.00 26 1027.6
20260906184920 24 134 6.4 14.5 0.00 0.00 0.00 27 1027.8
20260906184419 23 293 8.0 14.5 0.00 0.00 0.00 27 1027.8
20260906183919 23 38 6.4 14.5 0.00 0.00 0.00 27 1027.9
20260906183419 23 130 8.0 14.5 0.00 0.00 0.00 27 1028.0
20260906182918 23 142 8.0 14.5 0.00 0.00 0.00 28 1028.0
20260906182420 23 105 8.0 16.1 0.00 0.00 0.00 27 1028.2
20260906181919 23 81 9.7 16.1 0.00 0.00 0.00 28 1028.3
20260906181414 23 109 8.0 14.5 0.00 0.00 0.00 27 1028.3
20260906180914 23 121 6.4 14.5 0.00 0.00 0.00 27 1028.6
20260906180415 22 76 8.0 12.9 0.00 0.00 0.00 28 1028.7
20260906175915 22 78 8.0 14.5 0.00 0.00 0.00 29 1028.7
20260906175647 22 126 8.0 14.5 0.00 0.00 0.00 28 1028.7
20260906174916 22 159 6.4 12.9 0.00 0.00 0.00 28 1028.8
20260906174647 22 122 6.4 12.9 0.00 0.00 0.00 28 1028.9
20260906173911 22 109 6.4 17.7 0.00 0.00 0.00 27 1029.1
20260906173411 21 161 6.4 17.7 0.00 0.00 0.00 26 1029.3
20260906173141 21 152 4.8 12.9 0.00 0.00 0.00 28 1029.3
20260906172410 21 223 4.8 12.9 0.00 0.00 0.00 28 1029.5
20260906171910 20 177 3.2 11.3 0.00 0.00 0.00 33 1029.5
20260906171412 20 157 3.2 11.3 0.00 0.00 0.00 38 1029.6
20260906170910 20 169 3.2 6.4 0.00 0.00 0.00 38 1029.5
20260906170635 19 137 4.8 9.7 0.00 0.00 0.00 39 1029.6
20260906165905 18 217 3.2 9.7 0.00 0.00 0.00 42 1029.6
20260906165403 18 186 3.2 8.0 0.00 0.00 0.00 42 1029.6
20260906164901 18 213 3.2 8.0 0.00 0.00 0.00 42 1029.7
20260906164401 17 152 4.8 9.7 0.00 0.00 0.00 44 1029.9
20260906164133 17 111 4.8 9.7 0.00 0.00 0.00 44 1030.0
20260906163354 17 98 3.2 9.7 0.00 0.00 0.00 45 1030.0
20260906162855 16 87 3.2 8.0 0.00 0.00 0.00 46 1030.0
20260906162355 16 65 3.2 9.7 0.00 0.00 0.00 48 1030.1
20260906162125 16 344 3.2 9.7 0.00 0.00 0.00 48 1030.1
20260906161354 15 39 4.8 11.3 0.00 0.00 0.00 49 1030.1
20260906160855 15 162 4.8 11.3 0.00 0.00 0.00 50 1030.3
20260906160355 15 86 4.8 11.3 0.00 0.00 0.00 52 1030.3
20260906155849 15 166 3.2 9.7 0.00 0.00 0.00 52 1030.3
20260906155348 14 150 3.2 9.7 0.00 0.00 0.00 52 1030.5
20260906155119 14 205 3.2 8.0 0.00 0.00 0.00 54 1030.5
20260906154619 13 212 4.8 9.7 0.00 0.00 0.00 55 1030.5
20260906153849 13 155 4.8 9.7 0.00 0.00 0.00 56 1030.6
20260906153349 13 171 3.2 8.0 0.00 0.00 0.00 57 1030.8
20260906152843 12 228 4.8 8.0 0.00 0.00 0.00 59 1030.9
20260906152343 12 170 4.8 11.3 0.00 0.00 0.00 60 1031.0
20260906151843 12 250 6.4 11.3 0.00 0.00 0.00 62 1031.0
20260906151343 11 184 6.4 12.9 0.00 0.00 0.00 63 1031.2
20260906150843 11 134 6.4 12.9 0.00 0.00 0.00 65 1031.2
20260906150342 10 167 8.0 14.5 0.00 0.00 0.00 67 1031.2
20260906145837 10 188 9.7 16.1 0.00 0.00 0.00 68 1031.2
20260906145337 10 151 9.7 16.1 0.00 0.00 0.00 71 1031.2
20260906144837 9 147 9.7 14.5 0.00 0.00 0.00 74 1031.3
20260906144337 8 153 9.7 16.1 0.00 0.00 0.00 74 1031.3
20260906143837 8 151 9.7 16.1 0.00 0.00 0.00 76 1031.3
20260906143337 8 155 8.0 16.1 0.00 0.00 0.00 76 1031.2
20260906142830 8 177 9.7 16.1 0.00 0.00 0.00 78 1031.3
20260906142331 7 158 9.7 16.1 0.00 0.00 0.00 79 1031.3
20260906141831 7 169 8.0 14.5 0.00 0.00 0.00 81 1031.3
20260906141331 6 165 8.0 11.3 0.00 0.00 0.00 83 1031.4
20260906140831 6 151 6.4 11.3 0.00 0.00 0.00 85 1031.3
20260906140602 5 159 8.0 11.3 0.00 0.00 0.00 88 1031.3
20260906135825 5 170 8.0 14.5 0.00 0.00 0.00 90 1031.2
20260906135327 4 152 9.7 14.5 0.00 0.00 0.00 90 1031.2
20260906134825 3 146 6.4 14.5 0.00 0.00 0.00 90 1031.0
20260906134325 3 159 4.8 11.3 0.00 0.00 0.00 90 1031.2
20260906133827 3 171 4.8 9.7 0.00 0.00 0.00 89 1030.9
20260906133324 3 197 4.8 9.7 0.00 0.00 0.00 90 1030.9
20260906133049 3 171 4.8 9.7 0.00 0.00 0.00 91 1030.9
20260906132316 3 188 6.4 9.7 0.00 0.00 0.00 90 1030.9
20260906131816 3 158 6.4 9.7 0.00 0.00 0.00 90 1030.8
20260906131317 2 190 4.8 9.7 0.00 0.00 0.00 91 1030.6
20260906130817 2 203 3.2 8.0 0.00 0.00 0.00 89 1030.6
20260906130549 2 163 3.2 6.4 0.00 0.00 0.00 88 1030.5
20260906125813 3 157 4.8 8.0 0.00 0.00 0.00 88 1030.4
20260906125544 3 227 8.0 14.5 0.00 0.00 0.00 89 1030.3
20260906125043 3 250 9.7 14.5 0.00 0.00 0.00 89 1030.3
20260906124313 3 258 6.4 14.5 0.00 0.00 0.00 90 1030.3
20260906123811 2 272 3.2 6.4 0.00 0.00 0.00 90 1030.3
20260906123543 2 251 1.6 4.8 0.00 0.00 0.00 88 1030.3
20260906122808 3 178 3.2 8.0 0.00 0.00 0.00 86 1030.3
20260906122308 3 175 6.4 9.7 0.00 0.00 0.00 87 1030.3
20260906121809 3 170 6.4 9.7 0.00 0.00 0.00 88 1030.3
20260906121308 3 163 4.8 9.7 0.00 0.00 0.00 90 1030.1
20260906120808 3 202 4.8 8.0 0.00 0.00 0.00 91 1030.1
20260906120308 2 206 3.2 8.0 0.00 0.00 0.00 91 1030.0
20260906115809 2 178 3.2 8.0 0.00 0.00 0.00 89 1030.1
20260906115306 2 156 4.8 8.0 0.00 0.00 0.00 88 1030.1
20260906114802 2 149 4.8 8.0 0.00 0.00 0.00 88 1030.1
20260906114302 2 163 3.2 8.0 0.00 0.00 0.00 88 1030.0
20260906113803 2 217 3.2 6.4 0.00 0.00 0.00 88 1030.0
20260906113302 3 242 3.2 6.4 0.00 0.00 0.00 88 1030.0
20260906112803 3 233 0.0 4.8 0.00 0.00 0.00 85 1030.0
20260906112259 3 199 0.0 1.6 0.00 0.00 0.00 86 1030.0
20260906112031 3 199 0.0 1.6 0.00 0.00 0.00 86 1030.0
20260906111529 3 199 1.6 6.4 0.00 0.00 0.00 84 1030.0
20260906110759 4 199 3.2 6.4 0.00 0.00 0.00 84 1029.9
20260906110257 4 264 3.2 6.4 0.00 0.00 0.00 86 1029.7
20260906105757 4 250 3.2 9.7 0.00 0.00 0.00 86 1029.7
20260906105252 4 267 4.8 9.7 0.00 0.00 0.00 85 1029.6
20260906104752 4 202 4.8 9.7 0.00 0.00 0.00 86 1029.7
20260906104251 4 155 4.8 9.7 0.00 0.00 0.00 85 1029.7
20260906103751 4 144 4.8 8.0 0.00 0.00 0.00 85 1029.7
20260906103523 4 144 3.2 8.0 0.00 0.00 0.00 85 1029.6
20260906102753 5 173 3.2 9.7 0.00 0.00 0.00 84 1029.6
20260906102252 5 167 1.6 9.7 0.00 0.00 0.00 87 1029.6
20260906101752 5 177 4.8 8.0 0.00 0.00 0.00 84 1029.6
20260906101249 5 163 6.4 11.3 0.00 0.00 0.00 84 1029.6
20260906101021 5 169 4.8 11.3 0.00 0.00 0.00 84 1029.6
20260906100251 5 171 3.2 6.4 0.00 0.00 0.00 83 1029.6
20260906095746 5 206 4.8 6.4 0.00 0.00 0.00 83 1029.7
20260906095246 5 189 4.8 6.4 0.00 0.00 0.00 83 1029.7
20260906094746 5 229 4.8 8.0 0.00 0.00 0.00 83 1029.7
20260906094246 5 214 4.8 8.0 0.00 0.00 0.00 83 1029.5
20260906093747 5 196 4.8 6.4 0.00 0.00 0.00 84 1029.3
20260906093247 5 218 4.8 8.0 0.00 0.00 0.00 86 1029.5
20260906093013 5 186 6.4 12.9 0.00 0.00 0.00 84 1029.5
20260906092243 5 173 8.0 12.9 0.00 0.00 0.00 82 1029.3
20260906091743 5 146 6.4 11.3 0.00 0.00 0.00 82 1029.3
20260906091241 6 167 1.6 8.0 0.00 0.00 0.00 80 1029.2
20260906090742 6 205 1.6 6.4 0.00 0.00 0.00 80 1029.2
20260906090243 6 193 1.6 6.4 0.00 0.00 0.00 79 1029.3
20260906085737 6 184 1.6 4.8 0.00 0.00 0.00 79 1029.3
20260906085238 6 190 3.2 6.4 0.00 0.00 0.00 80 1029.2
20260906085011 6 188 3.2 8.0 0.00 0.00 0.00 80 1029.3
20260906084237 6 199 1.6 8.0 0.00 0.00 0.00 81 1029.2
20260906083738 6 232 0.0 4.8 0.00 0.00 0.00 78 1029.3
20260906083239 6 184 0.0 3.2 0.00 0.00 0.00 77 1029.5
20260906082734 7 184 1.6 4.8 0.00 0.00 0.00 75 1029.5
20260906082506 7 195 1.6 4.8 0.00 0.00 0.00 74 1029.5
20260906082005 7 221 3.2 6.4 0.00 0.00 0.00 74 1029.3
20260906081234 7 221 3.2 6.4 0.00 0.00 0.00 75 1029.5
20260906081004 7 241 3.2 9.7 0.00 0.00 0.00 76 1029.6
20260906080507 7 254 4.8 9.7 0.00 0.00 0.00 75 1029.6
20260906080004 7 223 3.2 8.0 0.00 0.00 0.00 75 1029.5
20260906075233 7 169 4.8 8.0 0.00 0.00 0.00 75 1029.5
20260906074734 7 182 4.8 9.7 0.00 0.00 0.00 75 1029.5
20260906074231 7 184 6.4 11.3 0.00 0.00 0.00 76 1029.3
20260906073733 7 161 4.8 11.3 0.00 0.00 0.00 74 1029.3
20260906073232 8 147 3.2 6.4 0.00 0.00 0.00 73 1029.5
20260906072725 8 211 4.8 11.3 0.00 0.00 0.00 73 1029.5
20260906072225 8 244 4.8 11.3 0.00 0.00 0.00 74 1029.3
20260906071727 8 259 4.8 9.7 0.00 0.00 0.00 73 1029.3
20260906071454 8 238 4.8 9.7 0.00 0.00 0.00 73 1029.3
20260906070725 8 219 4.8 9.7 0.00 0.00 0.00 72 1029.3
20260906070223 8 246 4.8 8.0 0.00 0.00 0.00 72 1029.2
20260906065725 8 254 3.2 4.8 0.00 0.00 0.00 71 1029.3
20260906065219 8 261 1.6 4.8 0.00 0.00 0.00 70 1029.2
20260906064720 9 269 1.6 6.4 0.00 0.00 0.00 70 1029.2
20260906064219 9 271 3.2 6.4 0.00 0.00 0.00 70 1029.3
20260906063719 9 250 3.2 6.4 0.00 0.00 0.00 68 1029.2
20260906063220 10 225 4.8 6.4 0.00 0.00 0.00 66 1029.2
20260906062721 10 211 4.8 8.0 0.00 0.00 0.00 67 1029.2
20260906062221 10 225 4.8 9.7 0.00 0.00 0.00 66 1029.1
20260906062216 10 223 4.8 9.7 0.00 0.00 0.00 65 1029.1
20260906061215 10 193 4.8 8.0 0.00 0.00 0.00 66 1029.1
20260906060715 10 188 8.0 12.9 0.00 0.00 0.00 65 1028.9
20260906060216 11 166 8.0 12.9 0.00 0.00 0.00 64 1028.9
20260906055717 11 169 4.8 11.3 0.00 0.00 0.00 62 1028.9
20260906055212 11 205 4.8 9.7 0.00 0.00 0.00 61 1028.9
20260906054712 11 169 6.4 11.3 0.00 0.00 0.00 59 1028.8
20260906054211 11 181 6.4 11.3 0.00 0.00 0.00 58 1028.8
20260906053711 12 211 4.8 9.7 0.00 0.00 0.00 59 1028.8
20260906053443 11 239 4.8 9.7 0.00 0.00 0.00 59 1028.7
20260906052713 11 221 4.8 9.7 0.00 0.00 0.00 59 1028.7
20260906052207 11 254 6.4 9.7 0.00 0.00 0.00 59 1028.7
20260906051708 11 253 4.8 9.7 0.00 0.00 0.00 59 1028.7
20260906051208 11 231 4.8 11.3 0.00 0.00 0.00 59 1028.7
20260906050708 12 245 6.4 11.3 0.00 0.00 0.00 58 1028.7
20260906050209 12 270 4.8 9.7 0.00 0.00 0.00 57 1028.7
20260906045709 12 255 4.8 9.7 0.00 0.00 0.00 57 1028.7
20260906045204 12 248 4.8 9.7 0.00 0.00 0.00 57 1028.7
20260906044929 12 240 4.8 6.4 0.00 0.00 0.00 57 1028.6
20260906044157 12 271 4.8 11.3 0.00 0.00 0.00 57 1028.7
20260906043656 12 252 6.4 11.3 0.00 0.00 0.00 57 1028.7
20260906043156 12 246 6.4 9.7 0.00 0.00 0.00 56 1028.8
20260906042657 12 262 4.8 9.7 0.00 0.00 0.00 55 1028.7
20260906042156 12 238 4.8 8.0 0.00 0.00 0.00 54 1028.7
20260906041649 13 248 4.8 8.0 0.00 0.00 0.00 54 1028.7
20260906041149 13 215 4.8 11.3 0.00 0.00 0.00 53 1028.7
20260906040649 13 242 6.4 11.3 0.00 0.00 0.00 52 1028.7
20260906040151 14 245 4.8 9.7 0.00 0.00 0.00 50 1028.7
20260906035648 15 256 3.2 6.4 0.00 0.00 0.00 49 1028.6
20260906035148 15 243 3.2 6.4 0.00 0.00 0.00 48 1028.7
20260906034647 15 258 1.6 6.4 0.00 0.00 0.00 48 1028.7
20260906034144 15 261 1.6 4.8 0.00 0.00 0.00 47 1028.6
20260906033642 15 261 3.2 6.4 0.00 0.00 0.00 47 1028.6
20260906033139 16 261 3.2 6.4 0.00 0.00 0.00 46 1028.4
20260906032913 16 159 3.2 11.3 0.00 0.00 0.00 46 1028.4
20260906032140 16 217 3.2 11.3 0.00 0.00 0.00 46 1028.3
20260906031633 15 239 4.8 9.7 0.00 0.00 0.00 46 1028.3
20260906031134 15 271 4.8 9.7 0.00 0.00 0.00 46 1028.2
20260906030906 15 267 4.8 6.4 0.00 0.00 0.00 47 1028.0
20260906030133 15 215 4.8 8.0 0.00 0.00 0.00 46 1027.9
20260906025633 16 224 6.4 12.9 0.00 0.00 0.00 46 1027.8
20260906025133 16 184 8.0 12.9 0.00 0.00 0.00 46 1027.6
20260906024634 16 163 8.0 11.3 0.00 0.00 0.00 45 1027.6
20260906024359 16 163 6.4 11.3 0.00 0.00 0.00 44 1027.5
20260906023627 16 177 6.4 9.7 0.00 0.00 0.00 43 1027.4
20260906023132 17 199 6.4 12.9 0.00 0.00 0.00 41 1027.4
20260906023127 16 155 6.4 9.7 0.00 0.00 0.00 43 1027.4
20260906022127 17 171 8.0 12.9 0.00 0.00 0.00 40 1027.2
20260906021630 17 188 4.8 11.3 0.00 0.00 0.00 39 1027.0
20260906021626 17 159 6.4 11.3 0.00 0.00 0.00 39 1027.1
20260906020622 17 169 3.2 6.4 0.00 0.00 0.00 39 1027.0
20260906020119 17 200 4.8 6.4 0.00 0.00 0.00 39 1026.9
20260906015620 17 226 3.2 6.4 0.00 0.00 0.00 38 1026.9
20260906015121 18 243 3.2 6.4 0.00 0.00 0.00 37 1026.9
20260906014620 18 185 3.2 8.0 0.00 0.00 0.00 36 1026.9
20260906014116 18 144 3.2 8.0 0.00 0.00 0.00 36 1026.9
20260906013616 19 202 1.6 4.8 0.00 0.00 0.00 36 1026.9
20260906013344 19 180 3.2 9.7 0.00 0.00 0.00 36 1026.9
20260906012614 20 180 6.4 14.5 0.00 0.00 0.00 35 1026.9
20260906012114 20 191 8.0 16.1 0.00 0.00 0.00 34 1026.7
20260906011614 20 169 8.0 17.7 0.00 0.00 0.00 33 1026.7
20260906011107 21 179 9.7 20.9 0.00 0.00 0.00 31 1026.7
20260906010608 21 196 9.7 20.9 0.00 0.00 0.00 31 1026.9
20260906010108 21 205 9.7 17.7 0.00 0.00 0.00 31 1026.7
20260906005608 22 180 11.3 17.7 0.00 0.00 0.00 30 1026.7
20260906005108 22 209 11.3 19.3 0.00 0.00 0.00 29 1026.7
20260906004607 22 185 11.3 19.3 0.00 0.00 0.00 29 1026.9
20260906004105 22 188 12.9 22.5 0.00 0.00 0.00 29 1026.7
20260906003835 22 196 12.9 22.5 0.00 0.00 0.00 28 1026.7
20260906003102 22 209 12.9 24.1 0.00 0.00 0.00 28 1026.9
20260906002602 22 229 12.9 24.1 0.00 0.00 0.00 29 1026.9
20260906002102 22 157 12.9 25.7 0.00 0.00 0.00 29 1026.7
20260906001601 23 134 11.3 25.7 0.00 0.00 0.00 27 1026.6
20260906001058 23 190 9.7 27.4 0.00 0.00 0.00 27 1026.6
20260906000558 23 202 11.3 27.4 0.00 0.00 0.00 28 1026.6
20260906000057 23 177 11.3 25.7 0.00 0.00 0.00 26 1026.5
20260905235559 23 184 12.9 24.1 0.00 0.00 0.00 26 1026.5
20260905235056 24 203 14.5 24.1 0.00 0.00 0.00 27 1026.5
20260905234556 24 176 12.9 24.1 0.00 0.00 0.00 27 1026.5
20260905234050 24 169 12.9 25.7 0.00 0.00 0.00 27 1026.3
20260905233550 24 188 12.9 25.7 0.00 0.00 0.00 27 1026.6
20260905233048 24 192 12.9 25.7 0.00 0.00 0.00 27 1026.6
20260905232550 24 187 12.9 24.1 0.00 0.00 0.00 27 1026.5
20260905232051 24 196 12.9 25.7 0.00 0.00 0.00 27 1026.6
20260905231550 24 207 12.9 25.7 0.00 0.00 0.00 26 1026.6
20260905231044 24 209 14.5 30.6 0.00 0.00 0.00 25 1026.6
20260905230544 24 216 14.5 30.6 0.00 0.00 0.00 26 1026.5